[[{"header":{"parameterUnit":"m.s-1","parameterCategory":2,"la1":30.2992,"la2":30.254,"lo1":-89.0895,"lo2":-89.0443,"dy":0.0025,"dx":0.0025,"nx":19,"ny":19,"refTime":"2026-04-02T09:00:00:Z","depth":"0","parameterNumber":2,"parameterNumberName":"U-component_of_CURRENTS"},"data":[0,0,0,0.2496,0.2497,0.2564,0.2564,0.2721,0.2723,0,0,0,0,0,0,0,0,0,0,0,0.2471,0.2471,0.2496,0.2497,0.2564,0.2564,0.2721,0.2723,0,0,0,0,0,0,0,0,0,0,0,0.247,0.2471,0.2472,0.2498,0.2564,0.2564,0.2721,0.2652,0,0,0,0,0,0,0,0,0,0,0.2578,0.254,0.2471,0.2472,0.2498,0.2564,0.2564,0.2648,0.2656,0.2712,0,0.2723,0,0.2732,0.2735,0.2736,0,0,0,0.2496,0.2533,0.2558,0.2472,0.2499,0.2564,0.2533,0.2652,0.2662,0.2724,0.2725,0.273,0.2734,0.2736,0.2737,0.2948,0.2948,0,0,0.2492,0.248,0.2551,0.2564,0.2519,0.2531,0.2535,0.2657,0.2666,0.2725,0.2734,0.2737,0.2738,0.2739,0.2947,0.2948,0,0,0,0.2483,0.2477,0.2497,0.2558,0.2567,0.2533,0.2538,0.266,0.2669,0.2736,0.2739,0.2739,0.2741,0.2946,0.2947,0.2949,0,0,0,0.248,0.2472,0.2495,0.2488,0.2564,0.2604,0.2539,0.266,0.2674,0.2738,0.2739,0.2743,0.2945,0.2946,0.2947,0.2942,0,0,0,0.2467,0.247,0.248,0.2488,0.2518,0.2602,0.2616,0.2663,0.2677,0.2736,0.2743,0.2944,0.2946,0.2945,0.2939,0.2935,0,0,0,0.245,0.2475,0.2479,0.2522,0.2517,0.2604,0.2615,0.2683,0.2735,0.274,0.2945,0.2947,0.2944,0.2937,0.2934,0.2873,0.2874,0,0,0.2473,0.2477,0.2506,0.2513,0.2591,0.2594,0.2692,0.2755,0.279,0.2907,0.2912,0.2948,0.2939,0.2935,0.3,0.2996,0,0,0,0.251,0.2521,0.2554,0.2594,0.2657,0.2723,0.2774,0.2807,0.2898,0.2831,0.2992,0.2987,0.2983,0.2946,0.2945,0.2947,0.2957,0.2957,0.2957,0.2493,0.2538,0.2593,0.266,0.2726,0.2816,0.2873,0.2933,0.2956,0.3,0.3022,0.3066,0.303,0.3027,0.3033,0.3064,0.3064,0.3064,0.3064,0.2507,0.2533,0.2608,0.2669,0.2763,0.2844,0.2975,0.2997,0.3073,0.3078,0.3074,0.2993,0.3025,0.3032,0.3065,0.3065,0.3065,0.3064,0.3064,0.2468,0.2491,0.2529,0.2621,0.2719,0.2842,0.2922,0.3014,0.3073,0.3092,0.3034,0.3033,0.3006,0.3079,0.3079,0.3079,0.3079,0.3079,0.3079,0.2404,0.2454,0.2477,0.2575,0.2624,0.2724,0.2877,0.2931,0.3003,0.3039,0.3038,0.3036,0.307,0.3032,0.3078,0.3079,0.3079,0.3079,0.3079,0.2353,0.2373,0.2403,0.2435,0.2528,0.2532,0.2709,0.2798,0.2879,0.289,0.2984,0.3011,0.2997,0.2999,0.296,0.2985,0.2985,0.2985,0.2985,0.2303,0.2323,0.2327,0.234,0.2379,0.2439,0.2418,0.2555,0.277,0.2864,0.2951,0.294,0.2944,0.2927,0.293,0.2892,0.2899,0.2899,0.2899,0.2267,0.2284,0.2244,0.2264,0.2286,0.2294,0.2209,0.2294,0.2664,0.2899,0.297,0.2974,0.2965,0.297,0.2949,0.2953,0.289,0,0]},{"header":{"parameterUnit":"m.s-1","parameterCategory":2,"la1":30.2992,"la2":30.254,"lo1":-89.0895,"lo2":-89.0443,"dy":0.0025,"dx":0.0025,"nx":19,"ny":19,"refTime":"2026-04-02T09:00:00:Z","depth":"0","parameterNumber":3,"parameterNumberName":"V-component_of_CURRENTS"},"data":[0,0,0,0.0087,0.0086,0.0044,0.0043,-0.002,-0.0021,0,0,0,0,0,0,0,0,0,0,0,0.0102,0.0102,0.0087,0.0086,0.0044,0.0043,-0.002,-0.0021,0,0,0,0,0,0,0,0,0,0,0,0.0102,0.0102,0.0102,0.0086,0.0044,0.0043,-0.002,0.0012,0,0,0,0,0,0,0,0,0,0,0.0053,0.0075,0.0102,0.0102,0.0086,0.0044,0.0043,0.0013,0.001,-0.0,0,0.0001,0,-0.0007,-0.0024,-0.0024,0,0,0,0.0076,0.0078,0.0066,0.0102,0.0086,0.0044,0.006,0.0011,0.0007,-0.0005,-0.0,-0.0003,-0.0008,-0.0025,-0.0025,-0.0002,-0.0002,0,0,0.0078,0.0091,0.0069,0.0064,0.0084,0.0061,0.0059,0.0009,0.0009,-0.0,-0.0004,-0.0009,-0.0025,-0.0025,-0.0003,-0.0002,0,0,0,0.0092,0.0093,0.0083,0.0067,0.0062,0.0061,0.0057,0.0011,0.0008,-0.0005,-0.001,-0.0025,-0.0026,-0.0004,-0.0003,0.0115,0,0,0,0.0093,0.0102,0.0084,0.0091,0.0063,0.0038,0.0061,0.0011,0.0005,-0.001,-0.0025,-0.0026,-0.0004,-0.0003,0.011,0.0178,0,0,0,0.0103,0.0103,0.0101,0.0092,0.0078,0.0039,0.0032,0.001,0.0002,-0.0024,-0.0027,-0.0005,-0.0003,0.0106,0.017,0.0205,0,0,0,0.0112,0.0135,0.0102,0.013,0.0079,0.0102,0.0032,0.0031,0.0016,-0.0026,-0.0004,-0.0003,0.0105,0.0165,0.0201,0.0265,0.0291,0,0,0.0151,0.014,0.016,0.0129,0.0179,0.0106,0.0158,0.0097,0.0034,0.0008,0.0008,0.0112,0.017,0.0204,0.0352,0.0376,0,0,0,0.018,0.0199,0.0208,0.0226,0.022,0.0242,0.0178,0.0152,0.0123,0.0033,0.011,0.0143,0.016,0.0189,0.0208,0.0137,0.0004,0.0004,0.0004,0.0253,0.0258,0.0314,0.0328,0.0348,0.0329,0.0334,0.0286,0.0207,0.0212,0.0236,0.0344,0.0377,0.0392,0.0318,0.0224,0.0225,0.0225,0.0225,0.034,0.0381,0.0405,0.0457,0.0478,0.0513,0.0489,0.0437,0.0427,0.0347,0.0357,0.0311,0.042,0.0333,0.0233,0.0231,0.023,0.023,0.0229,0.0393,0.0419,0.0444,0.0534,0.0613,0.0622,0.0702,0.0641,0.0543,0.0565,0.0545,0.0543,0.0466,0.0552,0.0552,0.0553,0.0553,0.0553,0.0554,0.0434,0.0468,0.054,0.0622,0.0696,0.0789,0.0814,0.0818,0.0765,0.0692,0.0691,0.0508,0.0442,0.0428,0.0561,0.056,0.0559,0.0558,0.0558,0.051,0.0514,0.0629,0.0704,0.087,0.1008,0.1017,0.1039,0.0996,0.0981,0.0739,0.0739,0.0703,0.0686,0.0677,0.0867,0.0867,0.0867,0.0867,0.0557,0.0568,0.0723,0.0856,0.1014,0.1117,0.1262,0.1256,0.1059,0.094,0.0825,0.0759,0.075,0.0709,0.0692,0.068,0.0865,0.0865,0.0865,0.0619,0.0664,0.078,0.0899,0.1081,0.1236,0.1379,0.1447,0.1137,0.0852,0.0718,0.0718,0.0602,0.0593,0.0507,0.0489,0.0459,0,0]}],[{"header":{"parameterUnit":"m.s-1","parameterCategory":2,"la1":30.2992,"la2":30.254,"lo1":-89.0895,"lo2":-89.0443,"dy":0.0025,"dx":0.0025,"nx":19,"ny":19,"refTime":"2026-04-02T09:00:00:Z","depth":"2","parameterNumber":2,"parameterNumberName":"U-component_of_CURRENTS"},"data":[0,0,0,0.2467,0.2468,0.2528,0.2528,0.2603,0.2604,0,0,0,0,0,0,0,0,0,0,0,0.244,0.2441,0.2466,0.2468,0.2528,0.2528,0.2603,0.2604,0,0,0,0,0,0,0,0,0,0,0,0.244,0.2441,0.2441,0.2468,0.2528,0.2528,0.2603,0.2556,0,0,0,0,0,0,0,0,0,0,0.2497,0.2476,0.2441,0.2441,0.2469,0.2528,0.2528,0.2554,0.2559,0.2578,0,0.2591,0,0.2606,0.261,0.261,0,0,0,0.246,0.2472,0.2491,0.2441,0.247,0.2528,0.2499,0.2557,0.2563,0.2585,0.2592,0.2595,0.2608,0.261,0.2611,0.2772,0.2773,0,0,0.2457,0.2448,0.2487,0.2495,0.2491,0.2497,0.2501,0.256,0.2567,0.2593,0.2597,0.2609,0.2611,0.2611,0.2771,0.2772,0,0,0,0.2453,0.2446,0.2464,0.2492,0.2507,0.2499,0.2503,0.2564,0.2571,0.2598,0.261,0.2611,0.2612,0.277,0.2771,0.283,0,0,0,0.245,0.2444,0.2462,0.2457,0.2506,0.2537,0.2505,0.2566,0.2574,0.2609,0.2611,0.2613,0.2768,0.277,0.2826,0.2806,0,0,0,0.2437,0.2443,0.2452,0.2457,0.2487,0.2536,0.2546,0.2568,0.2582,0.261,0.2613,0.2767,0.277,0.2822,0.2802,0.28,0,0,0,0.2422,0.2447,0.2452,0.2492,0.2487,0.2563,0.2546,0.2607,0.2638,0.2612,0.2768,0.2771,0.2821,0.2799,0.2798,0.272,0.2724,0,0,0.2446,0.2449,0.2476,0.2482,0.2541,0.2554,0.2633,0.2664,0.2685,0.2744,0.2748,0.2827,0.2801,0.28,0.2875,0.2873,0,0,0,0.2479,0.2485,0.2508,0.2545,0.2602,0.2656,0.2687,0.2728,0.281,0.2718,0.2866,0.2847,0.2843,0.2794,0.2795,0.2784,0.2783,0.2783,0.2783,0.2463,0.2502,0.2538,0.2583,0.2641,0.2737,0.2794,0.2861,0.2866,0.2933,0.2926,0.3,0.2954,0.2952,0.2984,0.2985,0.2985,0.2985,0.2985,0.2474,0.2487,0.2545,0.259,0.2672,0.2759,0.289,0.2935,0.3012,0.302,0.3015,0.2897,0.2955,0.2991,0.299,0.2989,0.2988,0.2988,0.2988,0.2438,0.2449,0.2484,0.256,0.2662,0.2773,0.2868,0.2978,0.3042,0.307,0.2985,0.2982,0.2977,0.3069,0.3069,0.3069,0.3068,0.3068,0.3068,0.2385,0.2421,0.2442,0.2528,0.2578,0.2692,0.2859,0.2906,0.2977,0.3014,0.3013,0.3027,0.3024,0.2982,0.3068,0.3068,0.3068,0.3068,0.3068,0.2332,0.2356,0.2382,0.2413,0.2513,0.2518,0.2693,0.2772,0.285,0.2858,0.298,0.2982,0.2935,0.2934,0.289,0.2947,0.2947,0.2947,0.2947,0.2284,0.2303,0.2308,0.2324,0.2367,0.2425,0.2374,0.2449,0.2629,0.2694,0.2704,0.2678,0.269,0.2627,0.2633,0.2581,0.2557,0.2556,0.2555,0.2245,0.2258,0.2225,0.2249,0.2277,0.2271,0.2141,0.2065,0.2252,0.2535,0.2585,0.293,0.2922,0.2928,0.2854,0.2855,0.2781,0,0]},{"header":{"parameterUnit":"m.s-1","parameterCategory":2,"la1":30.2992,"la2":30.254,"lo1":-89.0895,"lo2":-89.0443,"dy":0.0025,"dx":0.0025,"nx":19,"ny":19,"refTime":"2026-04-02T09:00:00:Z","depth":"2","parameterNumber":3,"parameterNumberName":"V-component_of_CURRENTS"},"data":[0,0,0,0.0047,0.0047,0.0005,0.0005,-0.0044,-0.0045,0,0,0,0,0,0,0,0,0,0,0,0.0061,0.0061,0.0047,0.0047,0.0005,0.0005,-0.0044,-0.0045,0,0,0,0,0,0,0,0,0,0,0,0.0061,0.0061,0.0061,0.0046,0.0005,0.0005,-0.0044,-0.0017,0,0,0,0,0,0,0,0,0,0,0.0022,0.004,0.0061,0.0061,0.0046,0.0005,0.0005,-0.0016,-0.0019,-0.002,0,-0.0019,0,-0.0027,-0.0047,-0.0047,0,0,0,0.0034,0.0043,0.0032,0.0061,0.0046,0.0005,0.002,-0.0017,-0.0021,-0.0024,-0.002,-0.0022,-0.0028,-0.0047,-0.0047,-0.0022,-0.0021,0,0,0.0036,0.005,0.0034,0.003,0.0045,0.0022,0.0019,-0.002,-0.0018,-0.002,-0.0023,-0.0028,-0.0047,-0.0047,-0.0022,-0.0022,0,0,0,0.0051,0.0052,0.0041,0.0032,0.0028,0.0021,0.0018,-0.0017,-0.002,-0.0024,-0.0029,-0.0047,-0.0048,-0.0023,-0.0022,0.009,0,0,0,0.0052,0.0061,0.0043,0.005,0.0029,0.0005,0.0021,-0.0018,-0.0022,-0.0029,-0.0047,-0.0048,-0.0023,-0.0022,0.0086,0.0154,0,0,0,0.0061,0.0062,0.006,0.0051,0.0038,0.0006,-0.0,-0.0019,-0.0025,-0.0047,-0.0048,-0.0024,-0.0023,0.0082,0.0147,0.0181,0,0,0,0.0071,0.0092,0.0061,0.0089,0.0039,0.0061,-0.0,-0.0001,-0.0013,-0.0047,-0.0023,-0.0022,0.0081,0.0142,0.0176,0.0229,0.0252,0,0,0.0108,0.0097,0.0116,0.0088,0.013,0.0065,0.011,0.0057,0.0004,-0.0014,-0.0014,0.0087,0.0146,0.018,0.0297,0.0319,0,0,0,0.0135,0.0151,0.0158,0.0173,0.0171,0.0187,0.0129,0.011,0.0087,0.0003,0.008,0.0114,0.0131,0.0153,0.0171,-0.0016,-0.0017,-0.0017,-0.0017,0.0202,0.0206,0.0251,0.0259,0.0279,0.0267,0.0273,0.0234,0.0163,0.0169,0.0199,0.0297,0.0322,0.0336,0.018,0.0181,0.0181,0.0182,0.0182,0.0282,0.0315,0.033,0.0372,0.039,0.0428,0.0416,0.0375,0.0372,0.0299,0.0309,0.0264,0.0362,0.0191,0.0189,0.0188,0.0187,0.0186,0.0186,0.0332,0.0351,0.0371,0.045,0.0524,0.0536,0.0624,0.0577,0.0487,0.0509,0.0484,0.0482,0.0366,0.0496,0.0496,0.0497,0.0497,0.0497,0.0498,0.0377,0.0401,0.0465,0.0538,0.0609,0.0708,0.0745,0.0748,0.0696,0.0624,0.0623,0.0402,0.0392,0.0383,0.0505,0.0504,0.0503,0.0502,0.0502,0.0447,0.0451,0.0555,0.0623,0.079,0.0925,0.0941,0.0956,0.0916,0.0898,0.0673,0.0666,0.0631,0.0616,0.0612,0.0786,0.0786,0.0786,0.0786,0.049,0.05,0.0641,0.077,0.0931,0.1028,0.1141,0.1093,0.0961,0.0847,0.0844,0.0786,0.0774,0.0741,0.0723,0.0717,0.092,0.092,0.092,0.0545,0.0577,0.0688,0.0805,0.0994,0.1134,0.122,0.1141,0.0942,0.0921,0.0822,0.0804,0.0706,0.0692,0.0625,0.0603,0.0587,0,0]}],[{"header":{"parameterUnit":"m.s-1","parameterCategory":2,"la1":30.2992,"la2":30.254,"lo1":-89.0895,"lo2":-89.0443,"dy":0.0025,"dx":0.0025,"nx":19,"ny":19,"refTime":"2026-04-02T09:00:00:Z","depth":"4","parameterNumber":2,"parameterNumberName":"U-component_of_CURRENTS"},"data":[0,0,0,0.168,0.1683,0.1826,0.1826,0.1923,0.1924,0,0,0,0,0,0,0,0,0,0,0,0.1636,0.1637,0.1679,0.1683,0.1826,0.1826,0.1923,0.1924,0,0,0,0,0,0,0,0,0,0,0,0.1635,0.1637,0.1638,0.1684,0.1826,0.1826,0.1923,0.1836,0,0,0,0,0,0,0,0,0,0,0.1708,0.1684,0.1636,0.1638,0.1684,0.1826,0.1826,0.1833,0.1841,0.1835,0,0.1871,0,0.1897,0.1929,0.1929,0,0,0,0.1681,0.1677,0.1712,0.1639,0.1686,0.1825,0.1761,0.1838,0.1848,0.1846,0.1872,0.1877,0.1899,0.1929,0.193,0.2025,0.2025,0,0,0.1673,0.1661,0.1706,0.1719,0.1739,0.1756,0.1765,0.1845,0.1861,0.1873,0.1879,0.1901,0.193,0.193,0.2024,0.2025,0,0,0,0.1652,0.1655,0.1691,0.1714,0.1746,0.176,0.1771,0.1858,0.187,0.1881,0.1902,0.193,0.1931,0.2024,0.2025,0.2079,0,0,0,0.1647,0.1643,0.1687,0.1681,0.1745,0.1817,0.1782,0.1865,0.1875,0.1901,0.193,0.1932,0.2023,0.2024,0.2076,0.2076,0,0,0,0.1626,0.1641,0.1662,0.168,0.1743,0.1816,0.1833,0.1868,0.1887,0.1929,0.1932,0.2023,0.2024,0.2074,0.2073,0.2151,0,0,0,0.1601,0.1621,0.1662,0.1694,0.1742,0.1809,0.1833,0.1899,0.1937,0.1931,0.2023,0.2025,0.2073,0.2071,0.2148,0.1864,0,0,0,0.1599,0.1621,0.1636,0.1676,0.1723,0.1789,0.1862,0.193,0.1951,0.1989,0.1992,0.2077,0.2073,0.2151,0.1938,0,0,0,0,0.1616,0.1634,0.1654,0.1702,0.1759,0.1839,0.1914,0.196,0.2043,0.1982,0.2087,0.2082,0.213,0.1955,0.203,0.203,0.203,0.203,0.203,0.16,0.1628,0.1656,0.1711,0.1768,0.1885,0.196,0.2039,0.206,0.2117,0.2134,0.2236,0.2053,0.2155,0.2155,0.2156,0.2156,0.2156,0.2156,0.1584,0.1587,0.1658,0.1698,0.1791,0.1875,0.2017,0.208,0.2211,0.2191,0.2237,0.2032,0.2162,0.2161,0.216,0.2159,0.2159,0.2158,0.2158,0.1549,0.1547,0.1602,0.167,0.1772,0.1892,0.201,0.2142,0.2241,0.2304,0.2158,0.2283,0.2271,0.2358,0.2359,0.2359,0.236,0.236,0.236,0.1472,0.1518,0.1551,0.1643,0.1702,0.1828,0.2031,0.2114,0.2251,0.2177,0.2339,0.2304,0.2298,0.2283,0.2366,0.2365,0.2364,0.2363,0.2363,0.1394,0.1433,0.1459,0.1513,0.1637,0.1708,0.1929,0.202,0.2107,0.2101,0.2118,0.2129,0.2087,0.2086,0.2062,0.2082,0.2079,0.2076,0,0.1332,0.1354,0.1373,0.1418,0.1478,0.1624,0.1657,0.1784,0.191,0.1845,0.2123,0.214,0.2145,0.2094,0.2088,0.2056,0,0,0,0.1283,0.1289,0.1278,0.1329,0.1381,0.1486,0.1655,0.1638,0.1886,0.1866,0.1992,0.2014,0.2209,0.2382,0.2344,0.2336,0.2311,0,0]},{"header":{"parameterUnit":"m.s-1","parameterCategory":2,"la1":30.2992,"la2":30.254,"lo1":-89.0895,"lo2":-89.0443,"dy":0.0025,"dx":0.0025,"nx":19,"ny":19,"refTime":"2026-04-02T09:00:00:Z","depth":"4","parameterNumber":3,"parameterNumberName":"V-component_of_CURRENTS"},"data":[0,0,0,0.0042,0.0042,0.0023,0.0023,0.0024,0.0024,0,0,0,0,0,0,0,0,0,0,0,0.0049,0.0049,0.0042,0.0042,0.0023,0.0022,0.0024,0.0024,0,0,0,0,0,0,0,0,0,0,0,0.0049,0.0049,0.0049,0.0042,0.0023,0.0022,0.0024,0.003,0,0,0,0,0,0,0,0,0,0,0.0045,0.005,0.0049,0.0049,0.0041,0.0023,0.0022,0.003,0.003,0.0041,0,0.0041,0,0.0035,0.0025,0.0025,0,0,0,0.0037,0.0051,0.0046,0.0049,0.0041,0.0023,0.003,0.003,0.003,0.0041,0.0041,0.0041,0.0035,0.0025,0.0025,0.0073,0.0073,0,0,0.0038,0.0045,0.0046,0.0046,0.0041,0.003,0.0029,0.0029,0.0031,0.0041,0.0041,0.0035,0.0025,0.0025,0.0072,0.0073,0,0,0,0.0044,0.0046,0.004,0.0046,0.0042,0.003,0.0029,0.0031,0.003,0.0041,0.0035,0.0025,0.0025,0.0072,0.0073,0.0131,0,0,0,0.0044,0.0049,0.0041,0.0044,0.0042,0.0033,0.0031,0.003,0.0029,0.0035,0.0025,0.0025,0.0072,0.0072,0.0129,0.0167,0,0,0,0.0049,0.005,0.0049,0.0045,0.0039,0.0033,0.0031,0.0029,0.0027,0.0025,0.0026,0.0071,0.0072,0.0126,0.0162,0.0193,0,0,0,0.0054,0.007,0.0049,0.0073,0.0039,0.0068,0.0031,0.0043,0.0046,0.0025,0.0072,0.0073,0.0126,0.016,0.019,0.0195,0,0,0,0.008,0.0073,0.009,0.0071,0.0111,0.0069,0.0111,0.0091,0.0063,0.0071,0.0072,0.0129,0.0162,0.0192,0.0251,0,0,0,0,0.0103,0.0115,0.0125,0.014,0.0149,0.0164,0.0139,0.0125,0.012,0.007,0.0132,0.0152,0.0168,0.0163,0.0077,0.0077,0.0077,0.0077,0.0077,0.0141,0.0152,0.0192,0.0209,0.023,0.0228,0.0233,0.021,0.0176,0.0178,0.0201,0.0268,0.0266,0.0195,0.0196,0.0196,0.0196,0.0196,0.0196,0.0193,0.022,0.0244,0.0285,0.0305,0.0337,0.0328,0.0299,0.0303,0.0258,0.0271,0.0228,0.0202,0.0201,0.02,0.02,0.0199,0.0199,0.0198,0.0217,0.0235,0.026,0.0328,0.0384,0.0401,0.0456,0.0422,0.0367,0.0382,0.0367,0.0312,0.0305,0.0386,0.0386,0.0386,0.0387,0.0387,0.0387,0.023,0.026,0.0308,0.0376,0.043,0.05,0.0527,0.0529,0.0479,0.0448,0.0405,0.0332,0.0326,0.0316,0.0392,0.0391,0.0391,0.039,0.039,0.0262,0.0271,0.0344,0.0398,0.0523,0.0582,0.0615,0.0607,0.0605,0.0573,0.0472,0.0467,0.0447,0.0438,0.0431,0.0544,0.0544,0.0545,0,0.0278,0.0288,0.0379,0.0468,0.0574,0.063,0.0666,0.0666,0.0594,0.0577,0.0582,0.0468,0.0463,0.0439,0.0432,0.0423,0,0,0,0.0304,0.0325,0.0389,0.0471,0.0592,0.0646,0.0678,0.0661,0.061,0.0611,0.0554,0.0552,0.0484,0.0407,0.0363,0.0356,0.0337,0,0]}]]